Napa County, CA

2:29 PM PDT on July 20, 2017 (GMT -0700)
Napa County

Weather History for KAPC - June, 2014

Change the Weather History Date:

Thursday, June 12, 2014

  Actual Average Record
Temperature  
Mean Temperature 65 °F 64 °F  
Max Temperature 76 °F 78 °F 94 °F (2008)
Min Temperature 53 °F 49 °F 43 °F (2009)
Degree Days  
Heating Degree Days 0    
Month to date heating degree days 22  
Since 1 June heating degree days 22  
Since 1 July heating degree days 2914  
Cooling Degree Days 0    
Month to date cooling degree days 15  
Year to date cooling degree days 26  
Since 1 June cooling degree days 15  
Growing Degree Days 14 (Base 50)    
Moisture  
Dew Point 51 °F    
Average Humidity 66    
Maximum Humidity 93    
Minimum Humidity 38    
Precipitation  
Precipitation 0.00 in - 0.00 in (2017)
Month to date precipitation 0.00  
Year to date precipitation 8.27  
Since 1 July precipitation 10.47  
Sea Level Pressure  
Sea Level Pressure 29.89 in    
Wind  
Wind Speed 13 mph (WSW)    
Max Wind Speed 25 mph    
Max Gust Speed 31 mph    
Visibility 10 miles    
Events      
T = Trace of Precipitation, MM = Missing Value Source: NWS Daily Summary

Daily Weather History Graph

Daily Weather History Graph

Search for Another Location

Airport or City:

Trip Planner

Search our weather history database for the weather conditions in past years. The results will help you decide how hot, cold, wet, or windy it might be!

Date:

Astronomy

Jun. 12, 2014 Rise Set
Actual Time 5:45 AM PDT 8:32 PM PDT
Civil Twilight 5:13 AM PDT 9:04 PM PDT
Nautical Twilight 4:34 AM PDT 9:43 PM PDT
Astronomical Twilight 3:49 AM PDT 10:28 PM PDT
Moon 8:11 PM PDT (6/12) 5:29 AM PDT (6/12)
Length of Visible Light 15h 50m
Length of Day
14h 47m
Full, 100% of the Moon is Illuminated
Jun 12
Full
Jun 12
Full
Jun 19
Last Quarter
Jun 27
New
Jul 5
First Quarter

Hourly Weather History & Observations

Time (PDT) Temp. Dew Point Humidity Pressure Visibility Wind Dir Wind Speed Gust Speed Precip Events Conditions
12:54 AM 54.0 °F 51.1 °F 90% 29.86 in 10.0 mi WNW 12.7 mph - N/A   Overcast
1:54 AM 53.1 °F 50.0 °F 89% 29.86 in 10.0 mi WNW 13.8 mph - N/A   Overcast
2:54 AM 53.1 °F 50.0 °F 89% 29.86 in 10.0 mi West 12.7 mph - N/A   Overcast
3:54 AM 53.1 °F 50.0 °F 89% 29.87 in 10.0 mi West 10.4 mph - N/A   Overcast
4:54 AM 53.1 °F 50.0 °F 89% 29.87 in 10.0 mi West 11.5 mph - N/A   Overcast
5:54 AM 53.1 °F 50.0 °F 89% 29.88 in 10.0 mi West 11.5 mph - N/A   Overcast
7:54 AM 53.1 °F 50.0 °F 89% 29.91 in 10.0 mi WSW 10.4 mph - N/A   Overcast
8:54 AM 55.9 °F 48.9 °F 77% 29.92 in 10.0 mi WSW 11.5 mph - N/A   Overcast
9:04 AM 55.9 °F 48.9 °F 77% 29.95 in 10.0 mi WSW 10.4 mph - N/A   Overcast
9:54 AM 60.1 °F 50.0 °F 69% 29.93 in 10.0 mi WSW 9.2 mph - N/A   Scattered Clouds
10:19 AM 62.1 °F 51.1 °F 67% 29.95 in 10.0 mi SW 11.5 mph - N/A   Partly Cloudy
10:54 AM 64.9 °F 52.0 °F 63% 29.92 in 10.0 mi SSW 16.1 mph - N/A   Clear
11:54 AM 66.9 °F 52.0 °F 59% 29.92 in 10.0 mi SSW 13.8 mph - N/A   Clear
12:54 PM 68.0 °F 52.0 °F 56% 29.91 in 10.0 mi SSW 19.6 mph - N/A   Clear
1:54 PM 69.1 °F 52.0 °F 54% 29.90 in 10.0 mi SSW 18.4 mph - N/A   Clear
2:54 PM 69.1 °F 53.1 °F 57% 29.89 in 10.0 mi South 21.9 mph 27.6 mph N/A   Clear
3:54 PM 69.1 °F 55.0 °F 61% 29.88 in 10.0 mi SSW 21.9 mph 26.5 mph N/A   Clear
4:54 PM 75.0 °F 48.0 °F 38% 29.88 in 10.0 mi West 18.4 mph 23.0 mph N/A   Clear
5:54 PM 73.0 °F 50.0 °F 44% 29.86 in 10.0 mi WSW 16.1 mph - N/A   Clear
6:54 PM 69.1 °F 51.1 °F 53% 29.85 in 10.0 mi West 19.6 mph - N/A   Clear
7:54 PM 64.0 °F 51.1 °F 63% 29.85 in 10.0 mi West 17.3 mph - N/A   Clear
8:54 PM 60.1 °F 50.0 °F 69% 29.87 in 10.0 mi Variable 4.6 mph - N/A   Clear
9:54 PM 57.0 °F 48.9 °F 74% 29.89 in 10.0 mi SSE 5.8 mph - N/A   Clear
10:54 PM 55.0 °F 50.0 °F 83% 29.89 in 10.0 mi SSW 3.5 mph - N/A   Clear
11:54 PM 55.9 °F 51.1 °F 84% 29.89 in 10.0 mi WSW 13.8 mph - N/A   Clear